EW5206 Weather Reports


Display with metric or nautical units.
time (UTC)temp
F
wind
direction
speed
MPH
gust
MPH
rain 1hr
in
rain 24hr
in
rain mn
in
humidity
%
barometer
mb
20260509051526 51 0.0 0.0 0.00 0.00 0.00 61 1013.3
20260509050026 52 0.0 0.0 0.00 0.00 0.00 59 1013.1
20260509044522 52 0.0 0.0 0.00 0.00 0.00 58 1013.0
20260509043020 52 0.0 0.0 0.00 0.00 0.00 58 1013.1
20260509041521 52 0.0 0.0 0.00 0.00 0.00 59 1013.1
20260509040023 53 0.0 0.0 0.00 0.00 0.00 57 1013.1
20260509034516 53 0.0 0.0 0.00 0.00 0.00 58 1013.2
20260509033015 53 0.0 0.0 0.00 0.00 0.00 57 1013.4
20260509031524 54 0.0 0.0 0.00 0.00 0.00 56 1013.6
20260509030014 54 0.0 0.0 0.00 0.00 0.00 54 1013.7
20260509024514 54 0.0 0.0 0.00 0.00 0.00 52 1013.7
20260509023015 55 0.0 0.0 0.00 0.00 0.00 51 1013.8
20260509021517 56 0.0 0.0 0.00 0.00 0.00 49 1013.7
20260509020014 56 0.0 0.0 0.00 0.00 0.00 49 1013.7
20260509014530 57 0.0 0.0 0.00 0.00 0.00 49 1013.6
20260509013011 58 0.0 0.0 0.00 0.00 0.00 45 1013.6
20260509011511 59 0.0 0.0 0.00 0.00 0.00 44 1013.3
20260509010011 60 0.0 0.0 0.00 0.00 0.00 42 1013.1
20260509004510 60 0.0 0.0 0.00 0.00 0.00 42 1013.0
20260509003010 61 0.0 0.0 0.00 0.00 0.00 41 1012.9
20260509001508 62 0.0 0.0 0.00 0.00 0.00 41 1013.0
20260509000008 62 0.0 0.0 0.00 0.00 0.00 40 1013.0
20260508234507 63 0.0 0.0 0.00 0.00 0.00 40 1012.9
20260508233007 64 0.0 0.0 0.00 0.00 0.00 39 1012.9
20260508231506 64 0.0 0.0 0.00 0.00 0.00 39 1012.8
20260508230006 65 0.0 0.0 0.00 0.00 0.00 39 1012.5
20260508224506 65 0.0 0.0 0.00 0.00 0.00 37 1012.4
20260508223008 66 0.0 0.0 0.00 0.00 0.00 39 1012.2
20260508221504 66 0.0 0.0 0.00 0.00 0.00 36 1012.2
20260508220013 66 0.0 0.0 0.00 0.00 0.00 35 1012.2
20260508214502 66 0.0 0.0 0.00 0.00 0.00 35 1012.3
20260508213002 66 0.0 0.0 0.00 0.00 0.00 34 1012.5
20260508211559 66 0.0 0.0 0.00 0.00 0.00 35 1012.6
20260508210058 66 0.0 0.0 0.00 0.00 0.00 34 1013.0
20260508204604 66 0.0 0.0 0.00 0.00 0.00 36 1013.1
20260508203052 67 0.0 0.0 0.00 0.00 0.00 35 1013.4
20260508201550 67 0.0 0.0 0.00 0.00 0.00 34 1013.6
20260508200051 68 0.0 0.0 0.00 0.00 0.00 34 1013.6
20260508194548 68 0.0 0.0 0.00 0.00 0.00 35 1013.8
20260508193052 68 0.0 0.0 0.00 0.00 0.00 34 1013.9
20260508191547 68 0.0 0.0 0.00 0.00 0.00 32 1014.0
20260508190058 68 0.0 0.0 0.00 0.00 0.00 34 1014.1
20260508184551 68 0.0 0.0 0.00 0.00 0.00 32 1014.3
20260508183047 69 0.0 0.0 0.00 0.00 0.00 31 1014.5
20260508181604 69 0.0 0.0 0.00 0.00 0.00 32 1014.6
20260508180053 69 0.0 0.0 0.00 0.00 0.00 29 1015.0
20260508174558 70 0.0 0.0 0.00 0.00 0.00 31 1015.2
20260508173043 70 0.0 0.0 0.00 0.00 0.00 32 1015.4
20260508171543 71 0.0 0.0 0.00 0.00 0.00 31 1015.8
20260508170043 71 0.0 0.0 0.00 0.00 0.00 27 1016.0
20260508164542 72 0.0 0.0 0.00 0.00 0.00 30 1016.3
20260508163041 73 0.0 0.0 0.00 0.00 0.00 27 1016.4
20260508161541 74 0.0 0.0 0.00 0.00 0.00 28 1016.7
20260508160040 75 0.0 0.0 0.00 0.00 0.00 28 1016.9
20260508154541 75 0.0 0.0 0.00 0.00 0.00 27 1017.0
20260508153043 76 0.0 0.0 0.00 0.00 0.00 28 1017.0
20260508151539 79 0.0 0.0 0.00 0.00 0.00 25 1017.2
20260508150039 79 0.0 0.0 0.00 0.00 0.00 24 1017.3
20260508144536 78 0.0 0.0 0.00 0.00 0.00 27 1017.3
20260508143033 77 0.0 0.0 0.00 0.00 0.00 28 1017.4
20260508141529 76 0.0 0.0 0.00 0.00 0.00 29 1017.4
20260508140033 75 0.0 0.0 0.00 0.00 0.00 32 1017.4
20260508134530 73 0.0 0.0 0.00 0.00 0.00 34 1017.4
20260508133017 70 0.0 0.0 0.00 0.00 0.00 36 1017.4
20260508131512 67 0.0 0.0 0.00 0.00 0.00 42 1017.4
20260508130007 64 0.0 0.0 0.00 0.00 0.00 46 1017.4
20260508124508 61 0.0 0.0 0.00 0.00 0.00 52 1017.4
20260508123108 57 0.0 0.0 0.00 0.00 0.00 54 1017.4
20260508121557 51 0.0 0.0 0.00 0.00 0.00 61 1017.4
20260508120053 47 0.0 0.0 0.00 0.00 0.00 63 1017.3
20260508114553 44 0.0 0.0 0.00 0.00 0.00 67 1017.2
20260508113059 43 0.0 0.0 0.00 0.00 0.00 70 1016.8
20260508111548 42 0.0 0.0 0.00 0.00 0.00 75 1016.8
20260508110047 42 0.0 0.0 0.00 0.00 0.00 76 1016.7
20260508104545 42 0.0 0.0 0.00 0.00 0.00 75 1016.6
20260508103048 42 0.0 0.0 0.00 0.00 0.00 75 1016.6
20260508101542 42 0.0 0.0 0.00 0.00 0.00 75 1016.4
20260508100041 42 0.0 0.0 0.00 0.00 0.00 74 1016.4
20260508094603 42 0.0 0.0 0.00 0.00 0.00 74 1016.2
20260508093039 42 0.0 0.0 0.00 0.00 0.00 73 1016.1
20260508091540 43 0.0 0.0 0.00 0.00 0.00 73 1016.1
20260508090034 43 0.0 0.0 0.00 0.00 0.00 72 1015.8
20260508084532 44 0.0 0.0 0.00 0.00 0.00 72 1015.8
20260508083030 44 0.0 0.0 0.00 0.00 0.00 71 1015.8
20260508081554 44 0.0 0.0 0.00 0.00 0.00 69 1015.6
20260508080024 45 0.0 0.0 0.00 0.00 0.00 66 1015.5
20260508074523 46 0.0 0.0 0.00 0.00 0.00 64 1015.5
20260508073019 46 0.0 0.0 0.00 0.00 0.00 62 1015.1
20260508071534 47 0.0 0.0 0.00 0.00 0.00 61 1015.0
20260508070116 47 0.0 0.0 0.00 0.00 0.00 59 1015.0
20260508064514 47 0.0 0.0 0.00 0.00 0.00 59 1014.9
20260508063027 48 0.0 0.0 0.00 0.00 0.00 59 1015.0
20260508061511 48 0.0 0.0 0.00 0.00 0.00 58 1015.1
20260508060010 48 0.0 0.0 0.00 0.00 0.00 58 1015.1
20260508054508 48 0.0 0.0 0.00 0.00 0.00 59 1015.0
20260508053006 49 0.0 0.0 0.00 0.00 0.00 61 1014.8